Decorah, Iowa, United States (52101)
Lat: 43.30N, Lon: 91.79W
Wx Zone: IAZ010
Local Info
Past Weather Observations for Today

NOTE: This archive is for the closest National Weather Service station to Decorah. Information may differ from the station used for current weather conditions.

Click here for Long-term Archive

Time Weather Temperature Dewpoint Humidity Pressure Winds Precip Visibility
19:15
Clear
72°F / 22°C 55°F / 13°C 57% 30.04 in
(1017 mb)
SSW 3.5 mph
(SSW 6 kph)
- 10SM
18:55
Clear
73°F / 23°C 57°F / 14°C 57% 30.04 in
(1017 mb)
Calm - 10SM
18:35
Clear
75°F / 24°C 55°F / 13°C 50% 30.04 in
(1017 mb)
Calm - 10SM
18:15
Clear
75°F / 24°C 55°F / 13°C 50% 30.04 in
(1017 mb)
Calm - 10SM
17:35
Clear
77°F / 25°C 54°F / 12°C 44% 30.04 in
(1017 mb)
Variable 4.6 mph
(Variable 7 kph)
- 10SM
17:15
Clear
77°F / 25°C 54°F / 12°C 44% 30.04 in
(1017 mb)
NW 4.6 mph
(NW 7 kph)
- 10SM
16:55
Clear
77°F / 25°C 54°F / 12°C 44% 30.04 in
(1017 mb)
Variable 5.8 mph
(Variable 9 kph)
- 10SM
16:35
Clear
77°F / 25°C 55°F / 13°C 47% 30.04 in
(1017 mb)
NW 6.9 mph
(NW 11 kph)
- 10SM
16:15
Clear
77°F / 25°C 54°F / 12°C 44% 30.04 in
(1017 mb)
NW 4.6 mph
(NW 7 kph)
- 10SM
15:55
Clear
77°F / 25°C 54°F / 12°C 44% 30.04 in
(1017 mb)
WNW 6.9 mph
(WNW 11 kph)
- 10SM
15:35
Clear
77°F / 25°C 55°F / 13°C 47% 30.04 in
(1017 mb)
NW 6.9 mph
(NW 11 kph)
- 10SM
15:15
Clear
77°F / 25°C 57°F / 14°C 51% 30.04 in
(1017 mb)
W 4.6 mph
(W 7 kph)
- 10SM
14:55
Clear
75°F / 24°C 57°F / 14°C 54% 30.04 in
(1017 mb)
Calm - 10SM
14:15
Clear
77°F / 25°C 57°F / 14°C 51% 30.04 in
(1017 mb)
WNW 3.5 mph
(WNW 6 kph)
- 10SM
13:55
Partly Cloudy
77°F / 25°C 57°F / 14°C 51% 30.06 in
(1018 mb)
NW 9.2 mph
(NW 15 kph)
- 10SM
13:35
Clear
77°F / 25°C 57°F / 14°C 51% 30.06 in
(1018 mb)
NW 6.9 mph
(NW 11 kph)
- 10SM
13:15
Clear
77°F / 25°C 59°F / 15°C 54% 30.06 in
(1018 mb)
Variable 6.9 mph
(Variable 11 kph)
- 10SM
12:55
Clear
77°F / 25°C 57°F / 14°C 51% 30.06 in
(1018 mb)
Variable 5.8 mph
(Variable 9 kph)
- 10SM
12:35
Partly Cloudy
77°F / 25°C 59°F / 15°C 54% 30.06 in
(1018 mb)
Variable 3.5 mph
(Variable 6 kph)
- 10SM
12:15
Mostly Cloudy
77°F / 25°C 57°F / 14°C 51% 30.06 in
(1018 mb)
Variable 5.8 mph
(Variable 9 kph)
- 10SM
11:55
Mostly Cloudy
75°F / 24°C 57°F / 14°C 54% 30.06 in
(1018 mb)
Variable 4.6 mph
(Variable 7 kph)
- 10SM
11:35
Mostly Cloudy
75°F / 24°C 57°F / 14°C 54% 30.06 in
(1018 mb)
Variable 5.8 mph
(Variable 9 kph)
- 10SM
11:15
Partly Cloudy
77°F / 25°C 59°F / 15°C 54% 30.06 in
(1018 mb)
Variable 5.8 mph
(Variable 9 kph)
- 10SM
10:55
Partly Cloudy
75°F / 24°C 59°F / 15°C 57% 30.06 in
(1018 mb)
NW 8.1 mph
(NW 13 kph)
- 10SM
10:35
Clear
75°F / 24°C 59°F / 15°C 57% 30.06 in
(1018 mb)
Calm - 10SM
10:15
Clear
73°F / 23°C 61°F / 16°C 65% 30.06 in
(1018 mb)
Variable 4.6 mph
(Variable 7 kph)
- 10SM
09:55
Clear
N/A 61°F / 16°C 65% 30.06 in
(1018 mb)
Variable 5.8 mph
(Variable 9 kph)
- 10SM
09:35
Clear
72°F / 22°C 61°F / 16°C 69% 30.06 in
(1018 mb)
NW 5.8 mph
(NW 9 kph)
- 10SM
09:15
Clear
72°F / 22°C 61°F / 16°C 69% 30.06 in
(1018 mb)
W 3.5 mph
(W 6 kph)
- 10SM
08:55
Clear
70°F / 21°C 61°F / 16°C 73% 30.06 in
(1018 mb)
WNW 5.8 mph
(WNW 9 kph)
- 10SM
08:35
Clear
68°F / 20°C 61°F / 16°C 78% 30.06 in
(1018 mb)
Calm - 10SM
08:15
Clear
66°F / 19°C 61°F / 16°C 83% 30.06 in
(1018 mb)
Calm - 10SM
07:55
Clear
64°F / 18°C 59°F / 15°C 83% 30.06 in
(1018 mb)
Calm - 10SM
07:35
Clear
63°F / 17°C 59°F / 15°C 88% 30.06 in
(1018 mb)
Calm - 10SM
07:15
Clear
63°F / 17°C 57°F / 14°C 83% 30.06 in
(1018 mb)
Calm - 10SM
06:55
Clear
61°F / 16°C 57°F / 14°C 88% 30.06 in
(1018 mb)
SSW 3.5 mph
(SSW 6 kph)
- 10SM
06:35
Clear
59°F / 15°C 57°F / 14°C 94% 30.06 in
(1018 mb)
Calm - 10SM
06:15
Clear
59°F / 15°C 57°F / 14°C 94% 30.06 in
(1018 mb)
Calm - 10SM
05:55
Clear
59°F / 15°C 55°F / 13°C 88% 30.06 in
(1018 mb)
Calm - 10SM
05:35
Clear
57°F / 14°C 55°F / 13°C 94% 30.06 in
(1018 mb)
Calm - 10SM
04:55
Clear
57°F / 14°C 55°F / 13°C 94% 30.06 in
(1018 mb)
Calm - 10SM
04:35
Partly Cloudy
59°F / 15°C 55°F / 13°C 88% 30.06 in
(1018 mb)
SSW 3.5 mph
(SSW 6 kph)
- 10SM
04:15
Partly Cloudy
59°F / 15°C 55°F / 13°C 88% 30.06 in
(1018 mb)
SSW 3.5 mph
(SSW 6 kph)
- 10SM
03:55
Clear
59°F / 15°C 57°F / 14°C 94% 30.04 in
(1017 mb)
Calm - 10SM
03:35
Clear
59°F / 15°C 57°F / 14°C 94% 30.06 in
(1018 mb)
Calm - 10SM
03:15
Partly Cloudy
59°F / 15°C 57°F / 14°C 94% 30.04 in
(1017 mb)
Calm - 10SM
02:35
Partly Cloudy
59°F / 15°C 57°F / 14°C 94% 30.06 in
(1018 mb)
Calm - 10SM
02:15
Clear
61°F / 16°C 57°F / 14°C 88% 30.06 in
(1018 mb)
Calm - 10SM
01:55
Partly Cloudy
61°F / 16°C 57°F / 14°C 88% 30.06 in
(1018 mb)
SSW 3.5 mph
(SSW 6 kph)
- 10SM
01:35
Partly Cloudy
61°F / 16°C 57°F / 14°C 88% 30.06 in
(1018 mb)
Calm - 10SM
01:15
Clear
61°F / 16°C 59°F / 15°C 94% 30.06 in
(1018 mb)
SSW 4.6 mph
(SSW 7 kph)
- 10SM
00:55
Partly Cloudy
61°F / 16°C 59°F / 15°C 94% 30.06 in
(1018 mb)
SSW 3.5 mph
(SSW 6 kph)
- 10SM
00:35
Clear
63°F / 17°C 59°F / 15°C 88% 30.06 in
(1018 mb)
Calm - 10SM
00:15
Clear
63°F / 17°C 59°F / 15°C 88% 30.06 in
(1018 mb)
Calm - 10SM
Time Weather Temperature Dewpoint Humidity Pressure Winds Precip Visibility


Weather for websites

WeatherForYou.com, LLC is not responsible for any damages or problems caused by this service. Current weather conditions are obtained from the closest station including government and personal stations which may have varying degrees of accuracy. Weather forecasts are derived from the NOAA NDFD. Like all things, this site belongs to Jesus Christ... He just trusts me to maintain it. If you have any questions or comments email webmaster@weatherforyou.com

Copyright © 2014, WeatherForYou.com LLC. All rights reserved.